Tracking 30072 objects as of 15-Jan-2025
HD Live streaming from Space Station
objects crossing your sky now

THOR ABLESTAR DEB

Track THOR ABLESTAR DEB now!
10-day predictions


NORAD ID: 48830
Int'l Code: 1961-015NJ
Perigee: 900.4 km
Apogee: 927.4 km
Inclination: 66.9 °
Period: 103.1 minutes
Semi major axis: 7284 km
RCS: Unknown
Launch date: June 29, 1961
Source: United States (US)
Launch site: AIR FORCE EASTERN TEST RANGE (AFETR)

Note: This is SATELLITE DEBRIS
Your satellite tracking list
Your tracking list is empty




NASA's NSSDC Master Catalog

Two Line Element Set (TLE):
1 48830U 61015NJ  24366.90854397  .00001176  00000-0  90790-3 0  9995
2 48830  66.9075 237.3327 0018514 254.3099 105.5941 13.96272102531654
Source of the keplerian elements: AFSPC